TITAN 3C TRANSTAGE DEB, 39298

Orbit data source: Space-Track

TITAN 3C TRANSTAGE DEB, 39298 is space debris in GEO originally from a launch on Thu, 26 Sep 1968 UTC launched from the Air Force Eastern Test Range (AFETR). Debris objects in space refer to the collection of defunct objects orbiting the Earth. Examples of debris include non-operational satellites, rocket bodies, and fragments generated from explosions, collisions, or faulty payload assembly.

Loading next visibility...
Identifier
39298, 1968-081AJ
Orbit
GEO
Country
Flag of USUS
Related business
Manufacturer
Unknown
Mission
Spacecraft
Bus & Motor
Unknown
Mass
Unknown
Launch date (UTC)
1968-09-26 (57 years ago)
Launch vehicle
Unknown
Launch site
Air Force Eastern Test Range (AFETR)
Object type
Payload
Rocket body
Debris
Shape & HBR
Unknown shape, 1.1 m
Radar Cross Section
RCS unknown

Expand to show TLE details & history
Last TLE update: 1 day ago

TLE from 1 day ago
0 TITAN 3C TRANSTAGE DEB
1 39298U 68081AJ  25347.11938780 -.00000313  00000-0  00000-0 0  9990
2 39298   1.4639  13.0861 0152501 328.3713  76.3675  1.00137154 64428
Epoch: 2025-12-13T02:51Z
TLE epoch observation values (Epoch: 2025-12-13T02:51:55.105Z)
Latitude
1.07985°
Longitude
-65.52293°
Altitude
35,682.266 km
Speed
3.084 km/s
True Right ascension
03h 58m 01s
True Declination
1° 04' 44"
Sunlit
Object was in daylight at epoch
Visualization orbit readout
Latitude
Unknown
Longitude
Unknown
Altitude
Unknown
Speed
Unknown
Apparent Right ascension
Unknown
Apparent Declination
Unknown
Sunlit
N/A
Visualization observer readout
Local Sidereal Time
01:37:56
Azimuth
Unknown
Elevation
Unknown
Doppler factor
Unknown
Orbital elements
Apogee altitude
36,469.057 km
Perigee altitude
35,181.839 km
Semi-major axis
42,203.585 km
Eccentricity
0.01525
Inclination
1.4639°
RAAN
13.0861°
Arg. of periapsis
328.3713°
True anomaly
78.07321°
Mean anomaly
76.3675°
Eccentric anomaly
77.21962°
Mean motion
0.25033 °/min
Orbital period
1,438.08 mins
BSTAR
0
Loading maneuver chart data...
Computing Atmospheric mass density...

Documentation

Showing up to 5 results
|